HP1GDP-12 Weather Reports


time (UTC)temp
C
wind
direction
speed
KPH
gust
KPH
rain 1hr
cm
rain 24hr
cm
rain mn
cm
humidity
%
barometer
mb
20260504081856 32 0.0 0.0 0.00 0.00 0.00 44 1003.0
20260504080851 32 0.0 0.0 0.00 0.00 0.00 44 1003.1
20260504050737 31 0.0 0.0 0.00 0.00 0.00 43 1004.7
20260504043725 31 0.0 0.0 0.00 0.00 0.00 43 1005.0
20260504042721 31 0.0 0.0 0.00 0.00 0.00 43 1005.0
20260504041717 31 0.0 0.0 0.00 0.00 0.00 42 1005.0
20260504040713 31 0.0 0.0 0.00 0.00 0.00 41 1005.0
20260504035708 31 0.0 0.0 0.00 0.00 0.00 41 1005.0
20260504034704 31 0.0 0.0 0.00 0.00 0.00 40 1005.1
20260504033700 31 0.0 0.0 0.00 0.00 0.00 40 1005.1
20260504032656 31 0.0 0.0 0.00 0.00 0.00 40 1005.2
20260504031652 30 0.0 0.0 0.00 0.00 0.00 38 1005.2
20260504030647 30 0.0 0.0 0.00 0.00 0.00 37 1005.0
20260504025642 30 0.0 0.0 0.00 0.00 0.00 35 1004.9
20260504024638 30 0.0 0.0 0.00 0.00 0.00 33 1005.0
20260504022630 30 0.0 0.0 0.00 0.00 0.00 34 1004.9
20260504021626 30 0.0 0.0 0.00 0.00 0.00 34 1004.8
20260504020622 30 0.0 0.0 0.00 0.00 0.00 33 1004.7
20260504014614 30 0.0 0.0 0.00 0.00 0.00 30 1004.4
20260504013610 30 0.0 0.0 0.00 0.00 0.00 31 1004.4
20260504012605 30 0.0 0.0 0.00 0.00 0.00 31 1004.3
20260504010557 31 0.0 0.0 0.00 0.00 0.00 35 1004.2
20260504005553 31 0.0 0.0 0.00 0.00 0.00 34 1004.4
20260504004548 31 0.0 0.0 0.00 0.00 0.00 37 1004.4
20260504003544 31 0.0 0.0 0.00 0.00 0.00 38 1004.4
20260504001536 31 0.0 0.0 0.00 0.00 0.00 33 1004.2
20260503235528 32 0.0 0.0 0.00 0.00 0.00 34 1004.0
20260503233519 32 0.0 0.0 0.00 0.00 0.00 34 1003.7
20260503232516 33 0.0 0.0 0.00 0.00 0.00 36 1003.6
20260503231512 33 0.0 0.0 0.00 0.00 0.00 38 1003.4
20260503230507 33 0.0 0.0 0.00 0.00 0.00 41 1003.3
20260503224459 33 0.0 0.0 0.00 0.00 0.00 41 1003.1
20260503223455 33 0.0 0.0 0.00 0.00 0.00 41 1003.1
20260503215439 33 0.0 0.0 0.00 0.00 0.00 41 1003.2
20260503214435 33 0.0 0.0 0.00 0.00 0.00 41 1003.1
20260503213431 33 0.0 0.0 0.00 0.00 0.00 41 1003.1
20260503212426 33 0.0 0.0 0.00 0.00 0.00 41 1003.1
20260503211422 33 0.0 0.0 0.00 0.00 0.00 41 1003.1
20260503210418 33 0.0 0.0 0.00 0.00 0.00 41 1003.2
20260503204410 33 0.0 0.0 0.00 0.00 0.00 41 1003.4
20260503203406 33 0.0 0.0 0.00 0.00 0.00 41 1003.5
20260503202402 33 0.0 0.0 0.00 0.00 0.00 42 1003.6
20260503201358 33 0.0 0.0 0.00 0.00 0.00 42 1003.5
20260503200354 33 0.0 0.0 0.00 0.00 0.00 42 1003.5
20260503195350 33 0.0 0.0 0.00 0.00 0.00 42 1003.6
20260503193341 33 0.0 0.0 0.00 0.00 0.00 42 1003.6
20260503192337 33 0.0 0.0 0.00 0.00 0.00 42 1003.7
20260503191333 33 0.0 0.0 0.00 0.00 0.00 42 1003.7
20260503190328 33 0.0 0.0 0.00 0.00 0.00 42 1004.1
20260503185324 33 0.0 0.0 0.00 0.00 0.00 42 1004.3
20260503184320 33 0.0 0.0 0.00 0.00 0.00 42 1004.4
20260503183317 33 0.0 0.0 0.00 0.00 0.00 43 1004.6
20260503182313 33 0.0 0.0 0.00 0.00 0.00 43 1004.9
20260503180304 33 0.0 0.0 0.00 0.00 0.00 45 1005.1
20260503175300 33 0.0 0.0 0.00 0.00 0.00 45 1005.2
20260503174256 33 0.0 0.0 0.00 0.00 0.00 45 1005.2
20260503173252 33 0.0 0.0 0.00 0.00 0.00 47 1005.2
20260503172247 32 0.0 0.0 0.00 0.00 0.00 46 1005.0
20260503171243 32 0.0 0.0 0.00 0.00 0.00 48 1005.3
20260503170239 32 0.0 0.0 0.00 0.00 0.00 44 1005.6
20260503160215 32 0.0 0.0 0.00 0.00 0.00 39 1006.2
20260503150150 32 0.0 0.0 0.00 0.00 0.00 33 1006.4
20260503131104 32 0.0 0.0 0.00 0.00 0.00 42 1006.0